Wind_Speed
5 6 7 9 11 13 14 15 17 20 21 23 25 26 27 28 29 29 30 31 31 31 31 31 31 31 32 32 31 31 31 30 30 30 29 28 28 27
6 6 6 8 10 12 14 14 16 18 19 21 23 25 25 27 28 29 30 31 32 32 32 32 32 33 33 34 34 33 33 33 32 32 32 31 31 30
6 6 7 7 8 10 13 14 16 17 18 20 22 24 25 26 28 29 30 31 33 33 34 34 34 34 35 35 36 36 35 35 35 35 35 34 33 33
7 6 7 7 8 9 11 13 14 16 17 19 21 23 25 26 27 29 30 31 33 35 36 37 37 36 37 37 37 37 38 37 38 38 38 37 36 36
8 7 7 7 8 9 10 12 13 15 17 18 20 21 24 25 26 28 30 31 32 33 35 37 38 38 38 39 39 39 40 40 40 40 40 40 39 39
9 8 7 7 8 9 10 11 12 14 15 17 18 20 22 24 25 27 28 30 31 33 34 36 38 39 39 40 41 41 41 41 42 42 42 42 42 42
10 9 8 8 8 9 10 11 12 13 14 16 17 19 20 22 24 25 27 28 30 31 32 33 36 37 38 39 40 41 41 42 43 43 44 44 44 44
10 10 9 9 9 10 10 11 12 13 14 15 16 17 18 20 21 23 25 25 27 30 31 32 33 35 37 39 41 42 43 43 43 43 44 44 45 46
11 11 10 10 11 11 11 12 12 13 14 15 15 16 17 19 20 21 23 25 26 28 30 31 33 33 34 37 39 41 43 44 44 44 44 44 45 45
13 12 12 12 12 12 12 13 14 14 15 16 17 18 18 19 20 21 22 24 25 27 28 29 31 32 33 34 36 38 41 43 44 44 44 44 44 44
14 13 13 13 13 13 14 14 15 15 16 17 18 18 19 19 20 21 21 22 24 26 27 27 29 30 31 32 33 35 37 39 41 42 42 43 43 44
15 14 14 15 15 15 15 15 15 16 16 17 18 18 19 19 20 21 21 21 23 24 26 26 27 28 28 30 31 33 34 35 37 39 41 42 42 43
16 16 16 16 16 16 16 16 17 17 17 17 18 18 19 19 20 20 20 21 21 23 24 25 26 27 27 27 29 31 32 33 34 36 38 39 41 42
17 16 17 17 17 17 18 18 18 18 18 18 19 19 19 19 20 21 21 22 22 22 23 25 25 26 27 28 29 30 32 33 33 33 35 37 38 40
18 18 18 18 18 18 19 19 19 19 20 20 20 20 20 21 21 21 22 22 23 23 24 25 26 27 28 28 29 30 32 33 34 34 35 35 36 37
19 20 20 20 20 20 20 20 20 20 20 21 21 21 21 22 22 22 22 23 23 24 25 25 26 27 28 29 30 31 32 33 34 35 35 35 35 36
21 21 21 22 22 22 22 22 22 21 21 21 21 22 22 22 23 23 23 24 24 24 25 26 27 28 29 29 30 31 32 33 34 35 36 36 37 38
22 23 23 23 23 23 23 23 23 23 23 23 23 23 23 24 24 25 25 26 26 27 27 27 28 29 29 31 32 32 33 34 35 36 37 38 38 39
24 24 24 24 24 25 25 25 25 25 25 25 25 25 25 26 26 26 27 27 28 29 29 30 30 30 31 31 33 35 35 36 37 37 39 39 40 40
26 26 26 26 27 27 27 27 27 27 27 27 27 27 27 28 28 28 29 29 30 30 31 32 33 33 34 34 34 36 38 38 39 39 40 41 41 42
28 28 28 28 29 29 29 29 29 29 29 29 29 29 29 30 30 31 31 32 32 33 33 34 35 36 36 36 36 37 38 40 40 41 42 42 42 42
30 30 30 30 31 31 32 32 31 31 31 31 31 31 31 32 32 33 34 34 35 36 36 37 38 38 38 38 38 38 39 40 41 42 43 44 44 43
32 32 32 33 33 33 33 33 33 32 32 32 32 33 33 33 34 35 36 36 37 37 38 38 39 40 41 41 41 41 41 42 42 42 43 45 46 46
Wind_Direction
301 279 262 251 241 237 235 234 234 236 236 234 233 234 235 236 237 238 239 239 240 238 237 237 238 239 238 238 239 240 240 241 243 243 243 244 246 248
307 291 275 261 249 242 241 242 240 238 238 237 237 237 239 240 241 241 241 240 240 241 242 241 242 242 241 241 242 242 243 244 245 245 245 246 248 250
313 298 280 266 257 249 246 246 245 242 242 241 241 242 243 244 243 243 243 243 242 242 244 244 245 245 244 244 243 244 245 246 245 246 247 248 249 251
321 308 294 278 266 257 252 250 249 247 246 245 245 245 246 247 247 245 245 246 245 244 245 245 246 247 247 245 245 245 246 247 247 247 248 249 250 252
328 316 304 290 277 267 260 256 255 254 252 251 250 248 247 248 249 248 247 248 248 247 246 246 246 246 247 247 247 247 248 249 250 250 250 250 251 253
333 323 311 299 287 277 268 262 261 259 259 259 257 254 252 252 252 252 250 250 250 250 249 248 249 248 247 248 248 249 250 250 250 250 251 251 252 253
336 329 321 310 299 289 278 270 267 266 266 266 264 261 258 256 255 255 254 253 252 252 251 251 251 250 249 249 249 248 249 250 251 251 252 253 253 254
335 331 323 313 306 299 289 278 275 274 274 272 270 267 264 261 260 258 256 256 256 255 254 254 253 253 251 250 250 250 250 250 251 252 252 253 254 254
332 329 324 315 308 302 295 288 283 281 279 277 275 272 270 266 265 263 260 258 259 259 259 258 257 257 256 254 252 251 251 252 252 252 253 254 255 255
329 326 323 318 312 306 300 294 288 285 283 281 279 276 273 272 269 268 267 265 263 263 262 261 260 260 259 258 255 254 254 253 253 253 254 255 255 256
325 322 320 317 313 309 305 301 295 290 287 286 284 280 277 275 273 271 270 268 266 266 266 265 263 262 262 262 261 260 258 256 255 255 255 257 258 259
323 320 318 316 313 310 308 305 301 296 292 289 287 284 281 279 277 275 272 270 269 268 269 268 268 267 266 266 265 264 262 259 258 257 257 258 259 260
322 320 317 315 313 311 308 306 303 299 295 291 289 285 283 282 281 279 278 275 273 271 269 268 269 269 269 267 267 265 264 262 262 260 258 259 260 260
318 317 315 314 313 311 308 306 303 300 296 293 290 286 284 282 282 281 281 280 278 275 272 270 271 271 271 270 269 268 268 267 266 265 264 262 261 261
313 314 313 311 310 309 308 306 304 300 297 294 290 287 285 284 283 283 282 282 280 279 278 276 275 274 273 273 271 270 270 269 269 268 267 267 265 265
310 311 311 309 307 305 305 305 303 301 298 295 291 289 286 285 284 284 284 283 283 283 282 280 280 278 276 275 274 272 272 271 269 269 269 268 267 267
306 308 308 308 306 304 302 302 301 300 297 295 293 290 287 286 285 285 284 284 283 283 283 282 282 282 279 277 276 275 275 273 271 270 269 268 268 269
302 303 305 306 305 304 303 301 300 299 296 293 291 289 288 287 286 285 285 284 283 283 283 283 283 283 283 281 279 277 276 275 273 272 271 271 269 269
298 300 301 303 304 303 302 301 300 299 298 295 292 289 287 286 286 286 286 285 285 284 284 283 283 283 282 282 281 280 279 277 276 274 274 273 271 270
297 297 298 300 301 302 301 300 299 298 297 296 293 290 288 286 285 285 285 286 286 286 286 285 285 284 283 282 281 281 281 279 278 277 276 275 274 272
295 296 296 298 300 300 300 299 298 297 296 294 293 291 289 287 286 285 285 286 286 286 286 286 286 286 285 284 283 282 282 281 280 279 277 276 274 273
294 294 295 297 298 299 300 299 298 296 295 294 293 292 290 288 287 286 286 286 286 286 286 286 286 286 286 285 284 284 283 283 283 281 279 277 275 273
292 293 294 296 297 298 299 299 297 296 295 294 293 292 290 289 288 287 287 287 287 286 286 286 286 286 286 286 285 285 284 283 282 281 281 279 277 275
Height
5776 5776 5777 5778 5780 5782 5784 5787 5790 5793 5795 5798 5801 5804 5807 5810 5813 5817 5820 5823 5826 5829 5833 5836 5839 5842 5845 5848 5851 5853 5856 5858 5860 5863 5865 5867 5869 5871
5775 5775 5775 5776 5777 5779 5781 5783 5786 5788 5790 5793 5796 5798 5801 5804 5807 5810 5813 5816 5819 5822 5826 5829 5832 5834 5838 5841 5844 5846 5849 5851 5854 5856 5858 5860 5862 5864
5774 5774 5774 5774 5775 5776 5778 5780 5782 5784 5786 5788 5790 5793 5795 5798 5801 5803 5806 5809 5812 5815 5818 5821 5824 5827 5829 5832 5835 5838 5841 5843 5846 5848 5850 5852 5854 5857
5772 5772 5772 5772 5772 5773 5774 5776 5778 5779 5781 5783 5785 5787 5789 5792 5794 5796 5799 5801 5804 5807 5809 5812 5815 5818 5821 5824 5827 5829 5832 5835 5837 5839 5842 5844 5846 5848
5771 5770 5770 5770 5770 5770 5771 5773 5774 5775 5776 5778 5779 5781 5783 5785 5786 5788 5791 5793 5795 5798 5800 5803 5806 5808 5811 5814 5817 5820 5822 5825 5828 5830 5832 5834 5836 5838
5770 5768 5768 5768 5768 5768 5768 5769 5770 5771 5772 5773 5773 5774 5776 5777 5779 5781 5782 5784 5787 5789 5791 5794 5796 5798 5801 5804 5807 5809 5812 5814 5817 5819 5822 5824 5826 5828
5768 5767 5766 5766 5765 5765 5765 5766 5766 5767 5767 5768 5768 5769 5770 5771 5772 5773 5775 5776 5778 5780 5782 5784 5786 5788 5790 5793 5795 5798 5800 5803 5805 5808 5810 5813 5815 5817
5767 5766 5764 5764 5763 5763 5763 5763 5763 5763 5763 5763 5763 5763 5763 5764 5765 5766 5767 5769 5771 5772 5773 5775 5776 5778 5780 5782 5784 5786 5789 5791 5794 5796 5799 5801 5803 5805
5765 5764 5763 5762 5761 5760 5760 5759 5759 5759 5759 5759 5758 5758 5758 5759 5759 5760 5761 5762 5763 5763 5764 5766 5767 5768 5769 5770 5772 5774 5776 5779 5782 5784 5786 5788 5791 5793
5763 5762 5761 5759 5758 5757 5757 5756 5755 5755 5754 5754 5754 5753 5753 5753 5753 5754 5754 5755 5755 5755 5756 5757 5757 5758 5759 5760 5761 5763 5765 5767 5769 5771 5774 5776 5778 5780
5761 5760 5758 5757 5755 5754 5753 5752 5751 5750 5750 5749 5749 5748 5748 5747 5747 5747 5747 5748 5748 5747 5747 5748 5748 5749 5750 5750 5751 5752 5753 5755 5757 5759 5761 5764 5765 5767
5759 5757 5756 5754 5752 5751 5750 5748 5747 5746 5745 5744 5743 5743 5742 5741 5741 5741 5741 5741 5741 5740 5740 5740 5740 5740 5741 5742 5742 5742 5743 5744 5745 5747 5749 5751 5753 5754
5756 5754 5752 5750 5749 5747 5745 5744 5743 5741 5740 5739 5738 5737 5736 5736 5735 5735 5734 5734 5733 5733 5733 5732 5732 5732 5732 5733 5733 5733 5734 5734 5735 5736 5737 5739 5740 5742
5752 5750 5748 5746 5744 5743 5741 5739 5738 5736 5735 5734 5733 5732 5731 5730 5729 5729 5728 5727 5726 5726 5725 5725 5725 5725 5725 5725 5725 5725 5724 5725 5725 5726 5727 5727 5728 5729
5748 5746 5744 5742 5740 5738 5736 5734 5733 5731 5730 5728 5727 5726 5725 5724 5723 5722 5721 5720 5719 5719 5718 5717 5717 5717 5716 5716 5716 5716 5715 5715 5715 5715 5716 5716 5717 5717
5743 5741 5739 5737 5735 5733 5731 5729 5727 5726 5724 5723 5721 5720 5719 5718 5717 5716 5715 5713 5713 5711 5710 5709 5709 5708 5708 5707 5707 5706 5705 5705 5704 5704 5705 5705 5706 5706
5738 5736 5734 5731 5729 5727 5725 5723 5722 5720 5718 5717 5715 5714 5713 5711 5710 5709 5708 5707 5706 5704 5703 5702 5701 5700 5699 5698 5697 5696 5695 5694 5694 5693 5693 5694 5695 5694
5732 5730 5728 5726 5723 5721 5719 5717 5715 5714 5712 5710 5709 5707 5706 5704 5703 5702 5700 5699 5698 5697 5695 5694 5693 5692 5690 5689 5688 5686 5685 5684 5683 5682 5682 5682 5683 5682
5725 5723 5721 5719 5717 5715 5712 5710 5708 5706 5705 5703 5701 5700 5698 5697 5695 5694 5692 5691 5689 5688 5686 5685 5683 5682 5681 5680 5678 5675 5673 5673 5672 5671 5670 5669 5670 5670
5718 5716 5714 5712 5710 5707 5705 5703 5701 5699 5697 5695 5693 5691 5690 5688 5687 5685 5683 5682 5680 5678 5676 5674 5673 5671 5670 5669 5667 5665 5661 5660 5659 5658 5657 5656 5655 5655
5710 5708 5706 5704 5702 5700 5697 5695 5693 5691 5688 5686 5684 5682 5680 5679 5677 5675 5674 5672 5670 5668 5666 5664 5661 5659 5657 5656 5655 5653 5650 5647 5645 5643 5642 5641 5641 5640
5701 5699 5697 5695 5693 5691 5689 5686 5684 5681 5679 5677 5675 5673 5671 5669 5667 5665 5663 5661 5659 5657 5655 5652 5649 5647 5645 5643 5641 5639 5637 5634 5631 5628 5626 5624 5623 5624
5692 5690 5688 5686 5684 5682 5679 5677 5674 5672 5670 5667 5665 5663 5660 5658 5656 5654 5652 5649 5647 5645 5642 5640 5637 5634 5631 5629 5627 5624 5622 5620 5617 5615 5612 5608 5607 5606